x

9415141 - Davis Point, San Pablo Bay, Ca (dpxc1) Weather Station

9:30am - Wed 27th Jul 2016 All times are PDT. -7 hours from GMT.

  • Wind
    6mph, 8mph gusts
  • Air Temp 64°f
  • Sea Pressure 1012.4mb
  • 9415141 - Davis Point, San Pablo Bay, Ca
  • 9415141 - Davis Point, San Pablo Bay, Ca

More Historic Weather Station data

Upgrade to MSW Pro to gain access to the past 30 days of data for over 8000 Wavebouys and Weather Stations around the globe.

Join Pro

Comparision Forecast

View Surf forecast
   
Wed 07/27 9:30am 6 8 mph 1012.4mb 64f
9:24am 6 7 mph 1012.4mb 63f
9:18am 6 8 mph 1012.4mb 63f
9:12am 7 10 mph 1012.4mb 62f
9:06am 7 10 mph 1012.4mb 62f
9:00am 8 10 mph 1012.4mb 61f
8:54am 8 11 mph 1012.4mb 61f
8:48am 9 11 mph 1012.4mb 61f
8:42am 8 13 mph 1012.3mb 61f
8:36am 10 13 mph 1012.3mb 61f
8:30am 8 13 mph 1012.3mb 61f
8:24am 9 14 mph 1012.2mb 61f
8:18am 9 14 mph 1012.2mb 62f
8:12am 10 14 mph 1012.1mb 62f
8:06am 11 15 mph 1012.1mb 62f
8:00am 9 14 mph 1012.1mb 63f
7:54am 11 14 mph 1012.1mb 62f
7:48am 9 13 mph 1012mb 61f
7:42am 10 13 mph 1011.9mb 61f
7:36am 8 11 mph 1011.9mb 61f
7:30am 8 10 mph 1011.9mb 62f
7:24am 8 11 mph 1011.9mb 63f
7:18am 8 11 mph 1011.8mb 63f
7:12am 8 10 mph 1011.8mb 63f
7:06am 7 10 mph 1011.8mb 63f
7:00am 7 10 mph 1011.7mb 63f
6:54am 7 8 mph 1011.7mb 63f
6:48am 7 9 mph 1011.7mb 62f
6:42am 7 8 mph 1011.6mb 62f
6:36am 7 9 mph 1011.6mb 62f
6:30am 6 9 mph 1011.5mb 62f
6:24am 7 9 mph 1011.4mb 62f
6:18am 6 8 mph 1011.3mb 62f
6:12am 6 9 mph 1011.3mb 62f
6:06am 7 9 mph 1011.2mb 61f
6:00am 8 10 mph 1011.2mb 61f
5:54am 8 9 mph 1011.1mb 61f
5:48am 7 9 mph 1011.1mb 61f
5:42am 8 10 mph 1011mb 61f
5:36am 8 10 mph 1011.1mb 61f
5:30am 9 11 mph 1011.1mb 61f
5:24am 9 11 mph 1011.1mb 61f
5:18am 9 11 mph 1011mb 61f
5:12am 8 11 mph 1011mb 61f
5:06am 10 11 mph 1011mb 61f
5:00am 9 13 mph 1010.9mb 61f
4:54am 9 11 mph 1011mb 60f
4:48am 8 11 mph 1011.2mb 60f
4:42am 9 11 mph 1011.2mb 60f
4:36am 8 11 mph 1011.1mb 60f
4:30am 8 14 mph 1011.1mb 60f
4:24am 9 13 mph 1011mb 60f
4:18am 8 13 mph 1011mb 60f
4:12am 9 14 mph 1011mb 60f
4:06am 10 14 mph 1011mb 60f
4:00am 9 14 mph 1011mb 60f
3:54am 10 17 mph 1011mb 61f
3:48am 11 18 mph 1010.9mb 61f
3:42am 14 17 mph 1010.8mb 60f
3:36am 13 17 mph 1010.8mb 61f
3:30am 10 16 mph 1010.7mb 62f
3:24am 11 15 mph 1010.7mb 62f
3:18am 9 11 mph 1010.7mb 62f
3:12am 9 11 mph 1010.6mb 63f
3:06am 9 13 mph 1010.6mb 63f
3:00am 11 14 mph 1010.5mb 63f
2:54am 9 13 mph 1010.5mb 64f
2:48am 11 16 mph 1010.4mb 64f
2:42am 11 16 mph 1010.3mb 64f
2:36am 9 11 mph 1010.3mb 65f
2:30am 9 13 mph 1010.3mb 64f
2:24am 8 10 mph 1010.3mb 64f
2:18am 6 9 mph 1010.4mb 64f
2:12am 6 8 mph 1010.4mb 64f
2:06am 5 8 mph 1010.4mb 65f
2:00am 6 7 mph 1010.4mb 65f
1:54am 3 7 mph 1010.4mb 65f
1:48am 5 7 mph 1010.4mb 65f
1:42am 6 8 mph 1010.5mb 65f
1:36am 7 9 mph 1010.4mb 65f
1:30am 7 9 mph 1010.4mb 65f
1:24am 6 11 mph 1010.3mb 64f
1:18am 8 11 mph 1010.3mb 64f
1:12am 9 11 mph 1010.2mb 64f
1:06am 9 10 mph 1010.2mb 64f
1:00am 8 10 mph 1010.2mb 65f
12:54am 7 9 mph 1010.2mb 66f
12:48am 6 8 mph 1010.1mb 67f
12:42am 8 9 mph 1010.1mb 67f
12:36am 6 9 mph 1010.2mb 67f
12:30am 6 7 mph 1010.1mb 68f
12:18am 3 6 mph 1010.1mb 68f
12:12am 2 5 mph 1010.2mb 69f
12:06am 5 7 mph 1010.2mb 68f
12:00am 3 7 mph 1010.1mb 68f
Tue 07/26 11:54pm 5 7 mph 1010.1mb 68f
11:48pm 6 8 mph 1010mb 68f
11:42pm 5 7 mph 1010mb 68f
11:36pm 7 9 mph 1009.9mb 68f
11:30pm 7 8 mph 1009.9mb 68f
11:24pm 6 8 mph 1009.9mb 68f
11:18pm 6 7 mph 1009.9mb 69f
11:12pm 6 7 mph 1009.9mb 68f
11:06pm 6 8 mph 1010mb 68f
11:00pm 5 6 mph 1010mb 68f
10:54pm 6 8 mph 1010mb 69f
10:48pm 6 8 mph 1010.1mb 69f
10:42pm 7 9 mph 1010.2mb 70f
10:36pm 6 8 mph 1010.2mb 70f
10:30pm 7 9 mph 1010.2mb 71f
10:24pm 8 9 mph 1010.2mb 71f
10:18pm 7 9 mph 1010.2mb 71f
10:12pm 7 9 mph 1010.2mb 72f
10:06pm 7 8 mph 1010.2mb 71f
10:00pm 6 7 mph 1010.2mb 71f
9:54pm 7 10 mph 1010.1mb 72f
9:48pm 9 10 mph 1009.9mb 71f
9:42pm 8
mph
1010mb 70f
9:36pm 6 7 mph 1010mb 71f
9:30pm 6 9 mph 1009.9mb 71f
9:24pm 8 9 mph 1009.9mb 71f
9:18pm 8 10 mph 1009.9mb 71f
9:12pm 8 10 mph 1009.8mb 71f
9:06pm 9 11 mph 1009.7mb 71f
9:00pm 8 9 mph 1009.7mb 73f
8:54pm 8
mph
1009.8mb 76f
8:48pm 8 9 mph 1009.7mb 75f
8:42pm 8
mph
1009.7mb 74f
8:36pm 8
mph
1009.6mb 73f
8:30pm 6 7 mph 1009.7mb 73f
8:24pm 7 9 mph 1009.7mb 73f
8:18pm 8 9 mph 1009.7mb -
8:12pm 7 8 mph 1009.7mb -
8:06pm 6 8 mph 1009.6mb -
8:00pm 7 9 mph - -
7:54pm 6 8 mph - -
7:48pm 7 9 mph 1009.6mb -
7:42pm 7 11 mph 1009.5mb -
7:36pm 8 10 mph 1009.4mb -
7:30pm 8 10 mph - 77f
7:24pm 8 10 mph - 77f
7:18pm 7 10 mph 1009.3mb 76f
7:12pm 8 11 mph 1009.2mb 77f
7:06pm 8 9 mph 1009.3mb 78f
7:00pm  -  mph - 77f
6:54pm  -  mph - 77f
6:48pm 9 11 mph - -
6:42pm 8 11 mph - -
6:36pm 10 13 mph - -
6:30pm 10 13 mph - -
6:24pm 9 13 mph - -
6:18pm 10 13 mph - 78f
6:12pm 9 11 mph - 77f
6:06pm 8 9 mph - 77f
6:00pm  -  mph - 78f
5:54pm  -  mph - 77f
5:48pm 10 14 mph 1009.3mb -
5:42pm 11 15 mph 1009.3mb -
5:36pm 11 14 mph 1009.2mb -
5:30pm 11 16 mph - 79f
5:24pm 15 17 mph - 79f
5:18pm  -  mph - 80f
5:12pm  -  mph - 80f
5:06pm  -  mph - 81f
5:00pm  -  mph - 84f
4:30pm 9 11 mph - 80f
4:24pm 10 11 mph - 78f
4:18pm 9 11 mph 1009.6mb -
4:12pm 9 11 mph 1009.7mb -
4:06pm 9 13 mph 1009.8mb -
4:00pm  -  mph 1009.8mb -
3:54pm  -  mph 1009.9mb -
3:48pm  -  mph 1010mb -
3:42pm  -  mph 1010.1mb -
3:36pm  -  mph 1010.1mb -
3:30pm 10 11 mph 1010.2mb 80f
3:24pm 9 11 mph 1010.3mb 80f
3:18pm 10 11 mph 1010.3mb -
3:12pm 9 11 mph 1010.4mb -
3:06pm 9 11 mph 1010.5mb -
3:00pm  -  mph - 80f
2:54pm  -  mph - 80f
2:48pm 9 10 mph - -
2:42pm 9 10 mph - -
2:36pm 8 9 mph - -
2:30pm 7 9 mph 1011mb 80f
2:24pm 7 8 mph 1011mb 80f
2:18pm 6 9 mph 1011.1mb 80f
2:12pm 5 6 mph 1011.1mb 79f
2:06pm 5 7 mph 1011.2mb 79f
2:00pm 3 6 mph 1011.3mb 79f
1:54pm 6
mph
1011.4mb 79f
1:48pm 6
mph
1011.5mb 78f
1:42pm 6 7 mph 1011.5mb 78f
1:36pm 3 6 mph 1011.5mb 80f
1:30pm 3 5 mph 1011.6mb 78f
1:24pm 2 5 mph 1011.6mb 77f
1:18pm 2 5 mph 1011.8mb 78f
1:12pm 3 7 mph 1011.8mb 77f
1:06pm 3 5 mph 1011.9mb 76f
1:00pm 2 5 mph 1011.9mb 76f
12:54pm 3 5 mph 1012mb 74f
12:48pm 2 6 mph 1012mb 74f
12:42pm 2 6 mph 1012.1mb 73f
12:36pm 3 5 mph 1012.1mb 72f
12:30pm 3 6 mph 1012.2mb 72f
12:24pm 3 5 mph 1012.3mb 72f
12:18pm 2 3 mph 1012.4mb 72f
12:12pm 2 5 mph 1012.4mb 71f
12:06pm 2 5 mph 1012.5mb 71f
12:00pm 1 5 mph 1012.5mb 70f
11:54am 2 5 mph 1012.5mb 69f
11:48am 3 6 mph 1012.7mb 69f
11:42am 2 5 mph 1012.8mb 70f
11:36am 2 5 mph 1012.8mb 69f
11:30am 1 3 mph 1012.7mb 69f
11:24am  -  6 mph 1012.7mb 69f
11:18am 2 5 mph 1012.8mb 69f
11:12am 3 6 mph 1012.8mb 68f
11:06am 5 6 mph 1012.8mb 67f
11:00am 5 7 mph 1012.8mb 67f
10:54am 6 7 mph 1012.8mb 67f
10:48am 5 7 mph 1012.9mb 67f
10:42am 5 6 mph 1013mb 67f
10:36am 5 7 mph 1013mb 67f
10:30am 5 6 mph 1013mb 66f
10:24am 3 6 mph 1013mb 66f
10:18am 3 6 mph 1013mb 66f
10:12am 3 5 mph 1012.9mb 66f
10:06am 3 5 mph 1012.9mb 66f
10:00am 2 3 mph 1013mb 65f
9:54am 2 5 mph 1013mb 65f
9:48am 3 5 mph 1013.1mb 64f
9:42am 3 6 mph 1013.1mb 65f
9:36am 5 6 mph 1013.2mb 64f
9:30am 5 7 mph 1013.2mb 63f
9:24am 5 7 mph 1013.2mb 63f
9:18am 6 8 mph 1013.1mb 63f
9:12am 6 8 mph 1013.2mb 63f
9:06am 6 7 mph 1013.2mb 63f
9:00am 5 7 mph 1013.2mb 63f
8:54am 6 7 mph 1013.1mb 62f
8:48am 5 6 mph 1013.2mb 62f
8:42am 5 6 mph 1013.2mb 62f
8:36am 5 7 mph 1013.2mb 62f
8:30am 5 7 mph 1013.3mb 62f
8:24am 5 7 mph 1013.3mb 62f
8:18am 6 8 mph 1013.3mb 62f
8:12am 6 8 mph 1013.2mb 62f
8:06am 6 7 mph 1013.2mb 62f
8:00am 6 7 mph 1013.1mb 62f
7:54am 6 7 mph 1013mb 62f
7:48am 6 7 mph 1012.9mb 62f
7:36am 5 6 mph 1013mb 61f
7:30am 5 6 mph 1013mb 61f
7:24am 5 7 mph 1012.9mb 61f
7:18am 6 7 mph 1012.9mb 61f
7:12am 5 7 mph 1012.8mb 61f
7:06am 3 5 mph 1012.8mb 61f
7:00am 3 5 mph 1012.7mb 61f
6:54am 3 5 mph 1012.7mb 60f
6:48am 5
mph
1012.7mb 60f
6:42am 5 6 mph 1012.6mb 61f
6:36am 6
mph
1012.5mb 61f
6:30am 5 6 mph 1012.5mb 61f
6:24am 6 7 mph 1012.4mb 61f
6:18am 6 7 mph 1012.4mb 60f
6:12am 7 8 mph 1012.3mb 60f
6:06am 5 6 mph 1012.3mb 60f
6:00am 3 6 mph 1012.3mb 60f
5:54am 5 6 mph 1012.2mb 61f
5:48am 3 6 mph 1012.2mb 61f
5:42am 3 5 mph 1012.2mb 61f
5:36am 2 3 mph 1012.1mb 61f
5:30am 2 5 mph 1012mb 60f
5:24am 3 5 mph 1012mb 60f
5:18am 5
mph
1011.9mb 60f
5:12am 5 6 mph 1012mb 61f
5:06am 5 6 mph 1011.9mb 60f
5:00am 6
mph
1011.8mb 60f
4:54am 5 6 mph 1011.9mb 60f
4:48am 5 6 mph 1011.9mb 60f
4:42am 5 6 mph 1011.9mb 60f
4:36am 6 7 mph 1012mb 60f
4:30am 6 8 mph 1012mb 60f
4:24am 6 8 mph 1012mb 60f
4:18am 6 8 mph 1012mb 60f
4:12am 7 8 mph 1012.1mb 60f
4:06am 7 8 mph 1012.1mb 60f
4:00am 7 9 mph 1012.1mb 60f
3:54am 7 9 mph 1012.1mb 60f
3:48am 7 9 mph 1012.1mb 60f
3:42am 6 8 mph 1012.1mb 60f
3:36am 7 9 mph 1012.1mb 60f
3:30am 7 9 mph 1012mb 60f
3:24am 8 10 mph 1012mb 60f
3:18am 7 9 mph 1012mb 60f
3:12am 8 10 mph 1012.1mb 60f
3:06am 9 11 mph 1012.1mb 60f
3:00am 8 10 mph 1012mb 60f
2:54am 8 11 mph 1012mb 60f
2:48am 8 11 mph 1012.1mb 60f
2:42am 8 11 mph 1012.1mb 60f
2:36am 8 11 mph 1012.1mb 60f
2:30am 10 13 mph 1012.1mb 60f
2:24am 10 13 mph 1012.1mb 60f
2:18am 7 11 mph 1012mb 60f
2:12am 10 15 mph 1011.9mb 59f
2:06am 10 15 mph 1011.9mb 59f
2:00am 13 15 mph 1011.7mb 59f
1:54am 10 14 mph 1011.8mb 60f
1:48am 8 11 mph 1011.7mb 60f
1:42am 8 10 mph 1011.7mb 60f
1:36am 6 9 mph 1011.7mb 60f
1:30am 5 9 mph 1011.8mb 60f
1:24am 6 9 mph 1011.8mb 61f
1:18am 6 9 mph 1011.8mb 62f
1:12am 7 9 mph 1011.8mb 62f
1:06am 5 8 mph 1011.8mb 63f
1:00am 3 5 mph 1011.9mb 64f
12:54am 3 6 mph 1011.9mb 64f
12:48am 3 7 mph 1011.9mb 65f
12:42am 6 7 mph 1011.9mb 65f
12:36am 3 6 mph 1011.8mb 67f
12:30am 2 6 mph 1011.9mb 67f
12:24am 3 5 mph 1011.9mb 68f
12:18am 3 5 mph 1011.9mb 68f
12:12am 3 6 mph 1011.9mb 68f
12:06am 5 6 mph 1011.9mb 68f
12:00am 5 6 mph 1011.9mb 68f
Mon 07/25 11:54pm 5 6 mph 1011.9mb 68f
11:48pm 5
mph
1011.9mb 67f
11:42pm 3 6 mph 1012mb 67f
11:36pm 6 7 mph 1012mb 67f
11:30pm 6
mph
1012mb 68f
11:24pm 6 7 mph 1012mb 67f
11:18pm 6 8 mph 1012.1mb 68f
11:12pm 6 8 mph 1012.1mb 67f
11:06pm 8 9 mph 1012.1mb 67f
11:00pm 7 9 mph 1012.2mb 67f
10:54pm 7 8 mph 1012.2mb 67f
10:48pm 7 9 mph 1012.2mb -
10:42pm 6 9 mph 1012.3mb -
10:36pm 7 9 mph 1012.3mb -
10:30pm 8 10 mph 1012.4mb 66f
10:24pm 8 10 mph 1012.4mb 66f
10:18pm 9 10 mph 1012.4mb 65f
10:12pm 9 13 mph 1012.5mb 65f
10:06pm 10 14 mph 1012.5mb 65f
10:00pm 10 13 mph 1012.5mb 65f
9:54pm 8 11 mph 1012.5mb 65f
9:48pm 9 11 mph 1012.4mb 65f
9:42pm 7 10 mph 1012.5mb 65f
9:36pm 8 11 mph 1012.4mb 66f
9:30pm 8 11 mph 1012.3mb 66f
9:24pm 8 11 mph 1012.3mb 66f
9:18pm 7 10 mph 1012.2mb 66f
9:12pm 8 11 mph 1012.2mb 66f
9:06pm 8 11 mph 1012.1mb 66f
9:00pm 8 11 mph 1012mb 65f
8:54pm 9 13 mph 1011.9mb 65f
8:48pm 9 13 mph 1011.9mb 65f
8:42pm 11 14 mph 1011.8mb 65f
8:36pm 9 15 mph 1011.7mb 65f
8:30pm 9 15 mph 1011.6mb 65f
8:24pm 13 17 mph 1011.5mb 64f
8:18pm 11 16 mph 1011.5mb 65f
8:12pm 14 17 mph 1011.4mb 65f
8:06pm 11 15 mph 1011.5mb 65f
8:00pm 11 15 mph - 66f
7:54pm 11 14 mph - 66f
7:48pm 13 16 mph 1011.5mb -
7:42pm 13 14 mph 1011.4mb -
7:36pm 9 11 mph 1011.5mb -
7:30pm 10 15 mph - 67f
7:24pm 11 15 mph - 67f
7:18pm 13 15 mph - 68f
7:12pm 13 14 mph - 68f
7:06pm 13 15 mph - 69f
7:00pm 11 14 mph - 69f
6:54pm 11 15 mph - 68f
6:48pm 13 16 mph 1011.3mb -
6:42pm 13 16 mph 1011.3mb -
6:36pm 13 16 mph 1011.3mb -
6:30pm 15 17 mph - -
6:24pm 16 18 mph - -
6:18pm 14 16 mph - 71f
6:12pm 11 16 mph - 75f
6:06pm 14 17 mph - 75f
6:00pm 15 17 mph - 75f
5:54pm 14 17 mph - 75f
5:48pm 14 16 mph - -
5:42pm 14 17 mph - -
5:36pm 14 16 mph - -
5:30pm 14 17 mph - 75f
5:24pm 14 18 mph - 74f
5:18pm 16 18 mph - -
5:12pm 16 20 mph - -
5:06pm 17 20 mph - -
5:00pm  -  mph - 74f
4:54pm  -  mph - 74f
4:48pm 15 18 mph 1011.5mb -
4:42pm 16 18 mph 1011.5mb -
4:36pm 16 20 mph 1011.5mb -
4:30pm 16 20 mph 1011.5mb -
4:24pm 15 18 mph 1011.6mb -
4:18pm 15 17 mph 1011.6mb -
4:12pm 15 17 mph 1011.6mb -
4:06pm 16 18 mph 1011.8mb -
4:00pm  -  mph - 74f
3:54pm  -  mph - 74f
3:48pm 15 17 mph 1011.9mb -
3:42pm 16 18 mph 1011.9mb -
3:36pm 13 17 mph 1012.1mb -
3:30pm 15 18 mph 1012mb -
3:24pm 16 18 mph 1012mb -
3:18pm 15 17 mph - 71f
3:12pm 15 18 mph - 71f
3:06pm 15 20 mph - 70f
3:00pm 17 21 mph - 69f
2:54pm 17 21 mph - 69f
2:48pm  -  mph - 69f
2:42pm  -  mph - 69f
2:36pm  -  mph - 69f
2:30pm 13 18 mph 1012.4mb 68f
2:24pm 16 20 mph 1012.3mb 68f
2:18pm 11 15 mph 1012.5mb 68f
2:12pm 10 14 mph 1012.5mb 69f
2:06pm 10 16 mph 1012.6mb 68f
2:00pm 13 17 mph 1012.6mb 68f
1:54pm 11 18 mph 1012.7mb 68f
1:48pm 14 18 mph 1012.8mb 67f
1:42pm 14 17 mph 1012.8mb 67f
1:36pm 13 16 mph 1012.9mb 67f
1:30pm 11 16 mph 1012.9mb 67f
1:24pm 13 15 mph 1012.9mb 67f
1:18pm 10 15 mph 1013mb 66f
1:12pm 14 17 mph 1013.1mb 65f
1:06pm 13 17 mph 1013.1mb 65f
1:00pm 14 17 mph 1013.2mb 65f
12:54pm 15 18 mph 1013.2mb 64f
12:48pm 14 17 mph 1013.2mb 64f
12:42pm 11 17 mph 1013.3mb 64f
12:36pm 11 16 mph 1013.4mb 64f
12:30pm 14 18 mph 1013.4mb 64f
12:24pm 14 16 mph 1013.5mb 64f
12:18pm 13 15 mph 1013.5mb 64f
12:12pm 9 14 mph 1013.6mb 65f
12:06pm 10 15 mph 1013.6mb 65f
12:00pm 10 15 mph 1013.6mb 64f
11:54am 11 16 mph 1013.6mb 64f
11:48am 11 15 mph 1013.6mb 64f
11:42am 9 15 mph 1013.7mb 65f
11:36am 10 14 mph 1013.7mb 64f
11:30am 10 13 mph 1013.8mb 64f
11:24am 10 13 mph 1013.8mb 64f
11:18am 9 13 mph 1013.8mb 64f
11:12am 9 13 mph 1013.8mb 64f
11:06am 9 11 mph 1013.8mb 64f
11:00am 8 11 mph 1013.8mb 64f
10:54am 8 13 mph 1013.9mb 63f
10:48am 8 11 mph 1013.9mb 63f
10:42am 7 10 mph 1013.9mb 63f
10:36am 8 10 mph 1013.9mb 62f
10:30am 8 11 mph 1013.9mb 62f
10:24am 8 11 mph 1013.9mb 62f
10:18am 9 13 mph 1013.9mb 61f
10:12am 9 14 mph 1013.9mb 61f
10:06am 9 13 mph 1013.9mb 60f
10:00am 9 14 mph 1014mb 60f
9:54am 9 14 mph 1014mb 59f
9:48am 9 14 mph 1014mb 59f
9:42am 9 14 mph 1014mb 59f
9:36am 9 14 mph 1014.1mb 58f
9:30am 10 15 mph 1014mb 58f
9:24am 10 15 mph 1014mb 58f
9:18am 10 15 mph 1014mb 58f
9:12am 11 15 mph 1013.9mb 58f
9:06am 10 15 mph 1013.9mb 57f
9:00am 10 14 mph 1013.9mb 57f
8:54am 10 16 mph 1013.9mb 57f
8:48am 10 15 mph 1013.9mb 57f
8:42am 9 14 mph 1013.9mb 57f
8:36am 10 16 mph 1013.8mb 57f
8:30am 13 17 mph 1013.8mb 57f
8:24am 11 15 mph 1013.8mb 57f
8:18am 11 17 mph 1013.7mb 57f
8:12am 10 16 mph 1013.7mb 57f
8:06am 11 17 mph 1013.6mb 57f
8:00am 13 16 mph 1013.6mb 57f
7:54am 11 15 mph 1013.6mb 57f
7:48am 10 16 mph 1013.6mb 57f
7:42am 13 16 mph 1013.6mb 56f
7:36am 11 16 mph 1013.5mb 57f
7:30am 11 16 mph 1013.6mb 57f
7:24am 13 16 mph 1013.5mb 56f
7:18am 11 16 mph 1013.5mb 57f
7:12am 13 16 mph 1013.4mb 56f
7:06am 13 17 mph 1013.4mb 57f
7:00am 10 15 mph 1013.3mb 57f
6:54am 10 15 mph 1013.3mb 57f
6:48am 11 15 mph 1013.2mb 56f
6:42am 10 14 mph 1013.2mb 57f
6:36am 11 16 mph 1013.1mb 57f
6:30am 9 16 mph 1013.1mb 57f
6:24am 11 16 mph 1013mb 57f
6:18am 13 16 mph 1012.9mb 56f
6:12am 11 16 mph 1012.8mb 56f
6:06am 10 15 mph 1012.7mb 57f
6:00am 11 18 mph 1012.6mb 56f
5:54am 13 17 mph 1012.5mb 56f
5:48am 10 16 mph 1012.6mb 57f
5:42am 13 17 mph 1012.5mb 57f
5:36am 13 17 mph 1012.4mb 57f
5:30am 13 16 mph 1012.5mb 57f
5:24am 15 20 mph 1012.4mb 56f
5:18am 16 20 mph 1012.3mb 56f
5:12am 13 16 mph 1012.4mb 56f
5:06am 13 16 mph 1012.4mb 56f
5:00am 13 16 mph 1012.4mb 56f
4:54am 13 17 mph 1012.4mb 56f
4:48am 13 18 mph 1012.4mb 56f
4:42am 14 21 mph 1012.3mb 56f
4:36am 15 18 mph 1012.3mb 56f
4:30am 15 22 mph 1012.3mb 56f
4:24am 15 18 mph 1012.3mb 56f
4:18am 16 21 mph 1012.3mb 56f
4:12am 14 21 mph 1012.3mb 57f
4:06am 15 22 mph 1012.2mb 56f
4:00am 15 21 mph 1012.1mb 56f
3:54am 15 21 mph 1012.1mb 57f
3:48am 14 20 mph 1012.2mb 57f
3:42am 15 20 mph 1012.1mb 57f
3:36am 15 20 mph 1012.1mb 57f
3:30am 14 21 mph 1012.1mb 57f
3:24am 14 21 mph 1012.1mb 57f
3:18am 14 18 mph 1012.1mb 57f
3:12am 14 18 mph 1012.1mb 57f
3:06am 13 18 mph 1012.1mb 57f
3:00am 11 18 mph 1012.2mb 58f
2:54am 13 18 mph 1012.1mb 57f
2:48am 14 18 mph 1012.1mb 57f
2:42am 14 18 mph 1012mb 57f
2:36am 13 22 mph 1012.1mb 57f
2:30am 14 20 mph 1012mb 57f
2:24am 14 21 mph 1012mb 58f
2:18am 17 21 mph 1011.9mb 57f
2:12am 15 21 mph 1012mb 58f
2:06am 15 20 mph 1012mb 58f
2:00am 15 21 mph 1012.1mb 58f
1:54am 15 22 mph 1012mb 58f
1:48am 15 22 mph 1012mb 58f
1:42am 16 22 mph 1012mb 58f
1:36am 14 22 mph 1012mb 58f
1:30am 14 20 mph 1011.9mb 58f
1:18am 15 20 mph 1011.9mb 58f
1:12am 13 18 mph 1011.9mb 58f
1:06am 15 20 mph 1011.9mb 58f
1:00am 13 20 mph 1011.9mb 58f
12:54am 14 20 mph 1011.9mb 58f
12:48am 15 20 mph 1011.9mb 58f
12:42am 15 23 mph 1011.9mb 58f
12:36am 17 23 mph 1011.9mb 58f
12:30am 17 22 mph 1011.8mb 58f
12:24am 15 23 mph 1011.9mb 58f
12:18am 16 23 mph 1011.8mb 58f
12:12am 15 21 mph 1011.8mb 58f
12:06am 17 23 mph 1011.7mb 58f
12:00am 16 20 mph 1011.7mb 58f
Sun 07/24 11:54pm 16 22 mph 1011.6mb 58f
11:48pm 16 21 mph 1011.6mb 59f
11:42pm 15 21 mph 1011.6mb 58f
11:36pm 16 21 mph 1011.6mb 58f
11:30pm 14 20 mph 1011.6mb 58f
11:24pm 14 20 mph 1011.6mb 58f
11:18pm 14 18 mph 1011.6mb 58f
11:12pm 14 18 mph 1011.5mb 59f
11:06pm 13 18 mph 1011.6mb 59f
11:00pm 13 20 mph 1011.5mb 59f
10:54pm 14 18 mph 1011.5mb 59f
10:48pm 15 21 mph 1011.4mb -
10:42pm 15 20 mph 1011.4mb -
10:36pm 14 20 mph 1011.4mb -
10:30pm 15 18 mph 1011.3mb 60f
10:24pm 13 18 mph 1011.3mb 60f
10:18pm 14 20 mph 1011.2mb 60f
10:12pm 15 18 mph 1011.2mb 60f
10:06pm 15 20 mph 1011.1mb 60f
10:00pm 14 20 mph 1011.1mb 60f
9:54pm 15 20 mph 1011mb 60f
9:48pm 13 18 mph 1011mb 61f
9:42pm 11 17 mph 1010.9mb 61f
9:36pm 13 18 mph 1010.8mb 61f
9:30pm 14 18 mph 1010.7mb 61f
9:24pm 11 16 mph 1010.6mb 62f
9:18pm 11 17 mph 1010.5mb 62f
9:12pm 14 18 mph 1010.4mb 62f
9:06pm 11 17 mph 1010.3mb 62f
9:00pm 15 18 mph 1010.2mb 62f
8:54pm 16 20 mph 1010.1mb 63f
8:48pm 16 18 mph 1010.1mb 63f
8:42pm 16 18 mph 1010mb 63f
8:36pm 15 18 mph 1010.1mb 64f
8:30pm 16 18 mph 1010.1mb 64f
8:24pm 15 17 mph 1010mb 64f
8:18pm 16 18 mph - 65f
8:12pm 14 18 mph - 65f
8:06pm 15 20 mph - 65f
8:00pm  -  mph 1009.9mb -
7:54pm  -  mph 1009.9mb -
7:48pm 16 18 mph 1009.9mb -
7:42pm 16 18 mph 1010mb -
7:36pm 16 17 mph 1009.9mb -
7:30pm 15 17 mph - -
7:24pm 15 18 mph - -
7:18pm 15 18 mph 1009.8mb 69f
7:12pm 16 18 mph 1009.9mb 70f
7:06pm 15 17 mph 1009.8mb 70f
7:00pm  -  mph - 69f
6:54pm  -  mph - 70f
6:48pm 17 22 mph - -
6:42pm 17 20 mph - -
6:36pm 16 18 mph - -
6:30pm 16 18 mph 1009.6mb -
6:24pm 15 17 mph 1009.5mb -
6:18pm 15 18 mph 1009.6mb -
6:12pm 14 17 mph 1009.6mb -
6:06pm 13 15 mph 1009.7mb -
6:00pm 14 16 mph - 73f
5:54pm 11 15 mph - 73f
5:48pm 14 17 mph 1009.6mb -
5:42pm 14 17 mph 1009.5mb -
5:36pm 13 18 mph 1009.5mb -
5:30pm 17 20 mph - -
5:24pm 17 20 mph - -
5:18pm 15 18 mph - 74f
5:12pm 15 18 mph - 76f
5:06pm 11 18 mph - 74f
5:00pm  -  mph - 74f
4:54pm  -  mph - 73f
4:48pm 13 16 mph - -
4:42pm 14 20 mph - -
4:36pm 16 20 mph - -
4:30pm 17 22 mph - -
4:24pm 20 21 mph - -
4:18pm 20 22 mph - -
4:12pm 18 21 mph - -
4:06pm 17 21 mph - -
4:00pm  -  mph - 72f
3:54pm  -  mph - 72f
3:48pm 20 22 mph - -
3:42pm 15 20 mph - -
3:36pm 14 17 mph - -
3:30pm 15 18 mph - -
3:24pm 16 17 mph - -
3:18pm 15 17 mph 1009.9mb 74f
3:12pm 11 15 mph 1010mb 74f
3:06pm 11 14 mph 1010.1mb 74f
3:00pm  -  mph - 75f
2:54pm  -  mph - 74f
2:48pm 11 15 mph - 74f
2:42pm 11 15 mph - 73f
2:36pm 11 15 mph - 74f
2:30pm 11 14 mph 1010.3mb 74f
2:24pm 11 14 mph 1010.4mb 74f
2:18pm 11 14 mph 1010.4mb 74f
2:12pm 10 14 mph 1010.5mb 74f
2:06pm 11 14 mph 1010.5mb 73f
2:00pm 11 15 mph 1010.5mb 72f
1:54pm 13 14 mph 1010.4mb 73f
1:48pm 11 14 mph 1010.5mb 73f
1:42pm 10 14 mph 1010.5mb 72f
1:36pm 9 14 mph 1010.6mb 72f
1:30pm 10 13 mph 1010.7mb 72f
1:24pm 11 15 mph 1010.7mb 72f
1:18pm 10 14 mph 1010.7mb 72f
1:12pm 10 14 mph 1010.7mb 72f
1:06pm 9 13 mph 1010.8mb 72f
1:00pm 10 14 mph 1010.7mb 72f
12:54pm 8 10 mph 1010.8mb 73f
12:48pm 6 9 mph 1010.8mb 73f
12:42pm 6 9 mph 1010.9mb 72f
12:36pm 8 10 mph 1011mb 71f
12:30pm 9 10 mph 1011mb 71f
12:24pm 8 10 mph 1011mb 71f
12:18pm 8 11 mph 1011mb 70f
12:12pm 9 11 mph 1010.9mb 70f
12:06pm 9 11 mph 1011mb 70f
12:00pm 8 10 mph 1011mb 70f
11:54am 9 11 mph 1011mb 70f
11:48am 8 11 mph 1011mb 69f
11:42am 8 10 mph 1011mb 69f
11:36am 8 10 mph 1011mb 69f
11:30am 7 10 mph 1011.1mb 69f
11:24am 8 11 mph 1011mb 68f
11:18am 7 9 mph 1011.1mb 69f
11:12am 6 8 mph 1011.2mb 70f
11:06am 5 7 mph 1011.2mb 69f
11:00am 6 8 mph 1011.2mb 69f
10:54am 6 9 mph 1011.1mb 68f
10:48am 6 8 mph 1011.2mb 68f
10:42am 5 8 mph 1011.2mb 68f
10:36am 6 8 mph 1011.2mb 67f
10:30am 5 8 mph 1011.2mb 67f
10:24am 5 8 mph 1011.2mb 67f
10:18am 6 8 mph 1011.2mb 67f
10:12am 6 8 mph 1011.2mb 67f
10:06am 6 7 mph 1011.2mb 66f
10:00am 6 8 mph 1011.2mb 66f
9:54am 7 8 mph 1011.1mb 66f
9:48am 6 8 mph 1011.1mb 65f
9:42am 7 8 mph 1011.1mb 65f
9:36am 6 8 mph 1011.1mb 65f
9:30am 6 8 mph 1011.1mb 65f
9:24am 6 8 mph 1011.1mb 64f
9:18am 7 9 mph 1011.1mb 64f
9:12am 7 9 mph 1011.1mb 64f
9:06am 7 9 mph 1011.1mb 64f
9:00am 6 8 mph 1011mb 64f
8:54am 6 9 mph 1011mb 64f
8:48am 6 8 mph 1011mb 63f
8:42am 6 8 mph 1011mb 63f
8:36am 6 8 mph 1011mb 63f
8:30am 6 7 mph 1011mb 63f
8:24am 5 7 mph 1010.9mb 62f
8:18am 5 8 mph 1010.9mb 63f
8:12am 5 8 mph 1010.9mb 63f
8:06am 5 8 mph 1010.9mb 62f
8:00am 3 6 mph 1010.9mb 62f
7:54am 5 6 mph 1010.8mb 62f
7:48am 3 7 mph 1010.8mb 62f
7:42am 5 7 mph 1010.7mb 61f
7:36am 6 7 mph 1010.7mb 62f
7:30am 5 6 mph 1010.6mb 61f
7:24am 5 6 mph 1010.5mb 61f
7:18am 3 6 mph 1010.4mb 61f
7:12am 6 8 mph 1010.3mb 61f
7:06am 6 7 mph 1010.3mb 61f
7:00am 6 8 mph 1010.3mb 61f
6:54am 3 5 mph 1010.2mb 61f
6:48am 3 5 mph 1010.2mb 61f
6:42am 3 5 mph 1010.2mb 61f
6:36am 1 3 mph 1010.2mb 61f
6:30am 2 5 mph 1010.2mb 60f
6:24am 2 5 mph 1010.2mb 60f
6:18am 3 5 mph 1010.1mb 60f
6:12am 5 6 mph 1010.1mb 61f
6:06am 5 6 mph 1010.1mb 61f
6:00am 3 6 mph 1010mb 60f
5:54am 5 6 mph 1010mb 60f
5:48am 6 7 mph 1009.9mb 60f
5:42am 6 9 mph 1009.8mb 60f
5:36am 7 9 mph 1009.8mb 60f
5:30am 7 9 mph 1009.7mb 60f
5:24am 6 9 mph 1009.7mb 60f
5:18am 7 10 mph 1009.7mb 60f
5:12am 7 9 mph 1009.7mb 60f
5:06am 7 9 mph 1009.6mb 60f
5:00am 7 9 mph 1009.6mb 60f
4:54am 6 10 mph 1009.6mb 60f
4:48am 7 10 mph 1009.6mb 61f
4:42am 6 9 mph 1009.6mb 61f
4:36am 7 9 mph 1009.6mb 61f
4:30am 6 9 mph 1009.5mb 61f
4:24am 8 9 mph 1009.4mb 61f
4:18am 6 9 mph 1009.4mb 61f
4:12am 6 8 mph 1009.4mb 61f
4:06am 6 7 mph 1009.4mb 61f
4:00am 6 8 mph 1009.4mb 61f
3:54am 7 9 mph 1009.4mb 61f
3:48am 7 9 mph 1009.4mb 61f
3:42am 7 10 mph 1009.4mb 60f
3:36am 8 9 mph 1009.3mb 61f
3:30am 7 9 mph 1009.3mb 61f
3:24am 8 9 mph 1009.3mb 61f
3:18am 7 9 mph 1009.4mb 61f
3:12am 7 9 mph 1009.4mb 61f
3:06am 7 9 mph 1009.5mb 61f
3:00am 7 10 mph 1009.5mb 61f
2:54am 8 10 mph 1009.5mb 61f
2:48am 8 10 mph 1009.6mb 61f
2:42am 8 11 mph 1009.6mb 61f
2:36am 10 13 mph 1009.6mb 60f
2:30am 10 13 mph 1009.6mb 61f
2:24am 9 13 mph 1009.6mb 61f
2:18am 10 13 mph 1009.6mb 61f
2:12am 9 14 mph 1009.6mb 61f
2:06am 8 11 mph 1009.7mb 62f
2:00am 8 10 mph 1009.7mb 61f
1:54am 8 11 mph 1009.7mb 61f
1:48am 8 11 mph 1009.8mb 62f
1:42am 8 10 mph 1009.8mb 62f
1:36am 7 10 mph 1009.8mb 62f
1:30am 8 11 mph 1009.8mb 62f
1:24am 8 10 mph 1009.8mb 62f
1:18am 8 10 mph 1009.9mb 62f
1:12am 8 11 mph 1009.9mb 62f
1:06am 7 10 mph 1009.9mb 62f
1:00am 8 10 mph 1009.9mb 63f
12:54am 8 10 mph 1009.9mb 63f
12:48am 8 10 mph 1009.9mb 63f
12:42am 9 11 mph 1009.9mb 63f
12:36am 10 11 mph 1009.9mb 62f
12:30am 9 11 mph 1009.9mb 62f
12:24am 9 11 mph 1010.1mb 62f
12:18am 9 11 mph 1010.1mb 62f
12:12am 8 11 mph 1010.2mb 62f
12:06am 9 13 mph 1010.2mb 62f
12:00am 9 11 mph 1010.3mb 63f
Sat 07/23 11:54pm 7 10 mph 1010.3mb 64f
11:48pm 7 9 mph 1010.3mb 63f
11:42pm 8 10 mph 1010.3mb 62f
11:36pm 8 11 mph 1010.4mb 63f
11:30pm 8 10 mph 1010.4mb 63f
11:24pm 9 11 mph 1010.4mb 63f
11:18pm 7 10 mph 1010.4mb 63f
11:12pm 8 10 mph 1010.3mb 64f
11:06pm 7 10 mph 1010.4mb 63f
11:00pm 7 10 mph 1010.3mb 64f
10:54pm 7 9 mph 1010.4mb 64f
10:48pm 8 10 mph 1010.4mb 64f
10:42pm 7 9 mph 1010.4mb 64f
10:36pm 7 10 mph 1010.5mb 65f
10:30pm 8 10 mph 1010.4mb 65f
10:24pm 10 13 mph 1010.4mb 64f
10:18pm 9 13 mph 1010.4mb 65f
10:12pm 10 14 mph 1010.4mb 65f
10:06pm 10 13 mph 1010.4mb 65f
10:00pm 8 11 mph 1010.4mb 65f
9:54pm 8 13 mph 1010.3mb 66f
9:48pm 10 14 mph 1010.3mb 67f
9:42pm 9 14 mph 1010.3mb 67f
9:36pm 10 13 mph 1010.3mb 67f
9:30pm 10 14 mph 1010.2mb 67f
9:24pm 10 14 mph 1010.1mb 67f
9:18pm 10 13 mph 1010.1mb 67f
9:12pm 10 13 mph 1010.1mb 68f
9:06pm 10 13 mph 1009.9mb 68f
9:00pm 9 13 mph 1009.9mb 69f
8:54pm 9 11 mph 1010mb 69f
8:48pm 9 11 mph 1009.9mb 70f
8:42pm 9 11 mph 1009.9mb 71f
8:36pm 8 10 mph 1009.8mb 72f
8:30pm 8 10 mph 1009.8mb 73f
8:24pm 7 9 mph 1009.8mb 73f
8:18pm 7 10 mph - 73f
8:12pm 8 11 mph - 74f
8:06pm 10 11 mph - 74f
8:00pm  -  mph - 74f
7:54pm  -  mph - 75f
7:48pm 10 13 mph 1009.6mb -
7:42pm 13 14 mph 1009.6mb -
7:36pm 11 14 mph 1009.6mb -
7:30pm 11 15 mph 1009.6mb -
7:24pm 13 15 mph 1009.6mb -
7:18pm  -  mph 1009.6mb 76f
7:12pm  -  mph 1009.6mb 77f
7:06pm  -  mph 1009.6mb 78f
7:00pm  -  mph - 78f
6:54pm  -  mph - 80f
6:48pm  -  mph - 79f
6:42pm  -  mph - 78f
6:36pm  -  mph - 76f
6:30pm 10 13 mph - -
6:24pm 11 13 mph - -
6:18pm 11 13 mph - -
6:12pm 11 13 mph - -
6:06pm 11 14 mph - -
6:00pm  -  mph - 78f
5:54pm  -  mph - 78f
5:48pm 13 15 mph 1010.3mb -
5:42pm 13 15 mph 1010.4mb -
5:36pm 14 16 mph 1010.4mb -
5:30pm 14 17 mph - -